Total_Precipitation_Accumulation
0.06 0.06 0.07 0.07 0.08 0.09 0.10 0.14 0.19 0.17 0.09 0.03 0.02 0.03 0.06 0.14 0.24 0.28 0.27 0.19 0.13 0.09 0.07 0.05 0.05 0.05 0.05 0.06 0.06 0.08 0.10 0.14 0.24 0.36 0.47 0.56 0.62 0.66
0.09 0.09 0.09 0.09 0.09 0.09 0.10 0.12 0.18 0.25 0.21 0.07 0.03 0.05 0.09 0.14 0.28 0.33 0.36 0.32 0.23 0.15 0.10 0.07 0.06 0.06 0.07 0.08 0.08 0.09 0.12 0.15 0.22 0.30 0.43 0.54 0.61 0.72
0.07 0.08 0.08 0.08 0.10 0.09 0.10 0.11 0.13 0.19 0.23 0.11 0.05 0.06 0.12 0.19 0.27 0.30 0.31 0.30 0.26 0.24 0.17 0.13 0.12 0.10 0.10 0.10 0.11 0.15 0.19 0.24 0.29 0.35 0.46 0.58 0.66 0.68
0.07 0.07 0.07 0.08 0.08 0.08 0.09 0.10 0.12 0.17 0.26 0.22 0.11 0.07 0.10 0.17 0.23 0.25 0.23 0.22 0.24 0.28 0.21 0.15 0.12 0.12 0.17 0.14 0.12 0.15 0.21 0.30 0.38 0.43 0.51 0.60 0.65 0.65
0.07 0.07 0.08 0.09 0.08 0.08 0.11 0.12 0.14 0.18 0.26 0.28 0.18 0.12 0.15 0.21 0.31 0.31 0.27 0.32 0.29 0.25 0.21 0.16 0.14 0.16 0.39 0.45 0.22 0.18 0.21 0.33 0.39 0.45 0.55 0.59 0.58 0.55
0.05 0.08 0.10 0.10 0.11 0.14 0.15 0.17 0.22 0.25 0.25 0.28 0.21 0.16 0.18 0.23 0.33 0.41 0.39 0.36 0.34 0.22 0.24 0.22 0.20 0.26 0.63 1.19 0.66 0.34 0.28 0.32 0.38 0.44 0.49 0.48 0.44 0.40
0.05 0.08 0.10 0.11 0.15 0.17 0.17 0.21 0.27 0.32 0.33 0.35 0.30 0.25 0.22 0.29 0.37 0.43 0.42 0.40 0.34 0.26 0.32 0.28 0.43 0.75 1.26 1.92 1.49 0.85 0.61 0.51 0.44 0.44 0.45 0.45 0.39 0.32
0.07 0.09 0.07 0.06 0.07 0.08 0.12 0.20 0.29 0.36 0.42 0.46 0.43 0.37 0.29 0.33 0.42 0.48 0.48 0.48 0.38 0.25 0.30 0.33 0.62 1.33 2.02 2.44 2.06 1.29 0.97 0.76 0.62 0.64 0.64 0.55 0.42 0.32
0.10 0.09 0.07 0.06 0.09 0.13 0.14 0.16 0.21 0.29 0.43 0.55 0.54 0.42 0.38 0.41 0.55 0.62 0.55 0.54 0.50 0.34 0.36 0.40 0.73 1.57 1.98 2.26 2.10 1.44 1.14 0.96 0.85 0.87 0.84 0.63 0.43 0.32
0.08 0.09 0.12 0.13 0.13 0.13 0.13 0.18 0.23 0.29 0.39 0.47 0.51 0.46 0.45 0.47 0.55 0.59 0.55 0.54 0.42 0.32 0.40 0.52 0.82 1.47 1.64 1.76 1.89 1.50 1.22 1.09 1.02 0.99 0.91 0.67 0.47 0.36
0.06 0.08 0.11 0.14 0.12 0.12 0.17 0.26 0.29 0.37 0.51 0.68 0.68 0.63 0.63 0.62 0.53 0.49 0.54 0.58 0.51 0.33 0.36 0.53 0.77 1.15 1.30 1.40 1.47 1.44 1.32 1.23 1.14 1.06 0.94 0.68 0.51 0.41
0.05 0.08 0.10 0.10 0.11 0.14 0.20 0.32 0.43 0.51 0.70 0.90 0.83 0.76 0.68 0.67 0.62 0.53 0.60 0.70 0.64 0.48 0.38 0.48 0.63 0.82 1.07 1.20 1.13 1.10 1.17 1.27 1.25 1.21 1.05 0.75 0.49 0.36
0.07 0.11 0.16 0.15 0.14 0.16 0.25 0.41 0.58 0.65 0.82 1.00 0.85 0.65 0.55 0.48 0.49 0.54 0.58 0.61 0.58 0.52 0.43 0.49 0.62 0.72 0.83 1.00 1.08 1.09 1.04 1.06 1.12 1.21 1.15 0.91 0.59 0.39
0.16 0.19 0.23 0.23 0.20 0.25 0.37 0.55 0.69 0.82 0.88 0.91 0.73 0.54 0.43 0.42 0.44 0.44 0.41 0.40 0.42 0.45 0.42 0.47 0.63 0.75 0.76 0.74 0.94 1.05 1.07 1.10 1.13 1.16 1.12 0.99 0.73 0.56
0.20 0.29 0.31 0.28 0.34 0.48 0.63 0.76 0.85 0.91 0.89 0.76 0.61 0.51 0.40 0.36 0.35 0.34 0.32 0.33 0.36 0.35 0.35 0.38 0.50 0.66 0.70 0.67 0.80 0.88 1.02 1.27 1.29 1.23 1.13 0.95 0.75 0.58
0.16 0.30 0.40 0.43 0.56 0.73 0.84 0.90 0.93 0.96 0.85 0.68 0.56 0.46 0.36 0.31 0.31 0.29 0.29 0.30 0.32 0.34 0.34 0.37 0.46 0.56 0.64 0.64 0.72 0.86 0.96 1.34 1.48 1.30 1.17 1.09 0.92 0.74
0.18 0.25 0.34 0.43 0.58 0.73 0.82 0.86 0.88 0.88 0.81 0.66 0.54 0.44 0.36 0.32 0.31 0.29 0.28 0.28 0.30 0.33 0.36 0.40 0.47 0.50 0.54 0.60 0.75 0.90 1.04 1.26 1.38 1.20 1.04 1.10 1.08 0.91
0.23 0.33 0.43 0.51 0.63 0.73 0.81 0.87 0.85 0.80 0.72 0.64 0.56 0.48 0.40 0.35 0.33 0.30 0.27 0.27 0.30 0.32 0.34 0.36 0.34 0.30 0.33 0.50 0.80 0.90 0.92 1.09 1.14 0.99 0.80 0.85 1.00 0.91
0.27 0.41 0.54 0.64 0.71 0.75 0.76 0.78 0.81 0.79 0.70 0.61 0.54 0.48 0.41 0.34 0.31 0.29 0.26 0.24 0.25 0.26 0.25 0.22 0.19 0.14 0.16 0.45 0.80 0.96 0.88 0.86 0.82 0.78 0.69 0.62 0.74 0.79
0.32 0.49 0.60 0.68 0.73 0.75 0.72 0.69 0.71 0.71 0.64 0.55 0.49 0.43 0.38 0.32 0.28 0.26 0.23 0.19 0.17 0.16 0.16 0.15 0.16 0.16 0.17 0.32 0.73 1.00 0.89 0.66 0.56 0.58 0.58 0.54 0.65 0.72
0.34 0.48 0.58 0.63 0.64 0.65 0.64 0.63 0.62 0.62 0.58 0.51 0.47 0.43 0.38 0.31 0.26 0.21 0.16 0.13 0.13 0.12 0.14 0.18 0.20 0.18 0.11 0.11 0.37 0.67 0.78 0.75 0.55 0.46 0.44 0.45 0.48 0.44
0.32 0.43 0.52 0.55 0.54 0.50 0.48 0.48 0.49 0.48 0.48 0.46 0.44 0.40 0.35 0.29 0.23 0.18 0.15 0.13 0.12 0.11 0.11 0.14 0.14 0.11 0.08 0.11 0.25 0.45 0.54 0.51 0.48 0.48 0.44 0.32 0.24 0.28
0.32 0.35 0.41 0.45 0.44 0.40 0.36 0.33 0.34 0.37 0.37 0.38 0.37 0.33 0.28 0.23 0.18 0.14 0.11 0.09 0.08 0.07 0.07 0.08 0.08 0.07 0.08 0.09 0.14 0.21 0.24 0.22 0.19 0.24 0.39 0.40 0.28 0.30